Location: Lussas
(44.6119°N, 4.4726°E)
Time: 19:25:43
(UTC+00:00)

Meteor 1-31 Rocket - Pass Details

Date: 26 November 2020
Orbit: 520 x 546 km, 97.6° (Epoch: 27 January)

Event Time Altitude Azimuth Distance (km) Brightness Sun altitude
Rises 04:29:22 0° 14° (NNE) 2,696 6.5 -25.1°
Reaches altitude 10° 04:31:30 10° 17° (NNE) 1,795 5.5 -24.7°
Enters shadow 04:34:55 63° 51° (NE) 598 3.0 -24.1°
Exits shadow 04:39:26 - 188° (S) 1,869 5.5 -23.3°
Sets 04:41:16 0° 189° (S) 2,645 6.3 -23.0°
